Location: Akdamlar
(36.8729°N, 30.5187°E)
Time: 18:57:02
(UTC+00:00)

CZ-2D R/B - Pass Details

Date: 18 September 2020
Orbit: 520 x 539 km, 97.4° (Epoch: 26 October)

Event Time Altitude Azimuth Distance (km) Brightness Sun altitude
Rises 16:36:48 0° 174° (S) 2,676 6.7 -8.1°
Reaches altitude 10° 16:38:55 10° 177° (S) 1,790 5.8 -8.5°
Maximum altitude 16:42:45 65° 259° (W) 596 3.8 -9.2°
Drops below altitude 10° 16:46:38 10° 342° (NNW) 1,805 6.3 -10.0°
Sets 16:48:46 0° 345° (NNW) 2,701 7.2 -10.4°
